Showing default

OPS 9321 (IDSCS 8), 2645

Orbit data source: Space-Track

OPS 9321 (IDSCS 8), 2645 is a payload satellite owned by USAF SSD (US) in GEO that was launched on Wed, 18 Jan 1967 UTC via a TITAN IIIC launch vehicle from the Air Force Eastern Test Range (AFETR). Payload-class satellites include a variety of spacecraft equipped with specific instruments for various scientific and technological missions. These include communications satellites like Starlink; space stations such as the ISS; scientific satellites like the Hubble; Earth observation satellites from companies like Planet Labs, Umbra, and HawkEye 360; GPS; miniature CubeSats for education and research; and military/defense satellites.

Loading next visibility...
Identifier
2645, 1967-003A
Orbit
GEO
Country
Flag of USUS
Related business
Manufacturer
Philco-Ford WDL
Mission
Non-operational spacecraft
Bus & Motor
IDCSP, Unknown motor
Mass
45 kg wet, 45 kg dry
Launch date (UTC)
1967-01-18 (60 years ago)
Launch vehicle
TITAN IIIC
Launch site
Air Force Eastern Test Range (AFETR)
Object type
Payload
Rocket body
Debris
Shape & HBR
ICO POLY, 0.5 m
Radar Cross Section
Medium (>0.1 m² and <1 m²)

Expand to show TLE details & history
Last TLE update: 2 days ago

TLE from 2 days ago
0 OPS 9321 (IDSCS 8)
1 02645U 67003A   26206.22484197 -.00000102  00000-0  00000-0 0  9990
2 02645   8.4127  44.1822 0035144 125.3598  77.4136  1.08317344234864
Epoch: 2026-07-25T05:23Z
TLE epoch observation values (Epoch: 2026-07-25T05:23:46.346Z)
Latitude
-3.30385°
Longitude
-136.74876°
Altitude
33,642.376 km
Speed
3.157 km/s
True Right ascension
16h 28m 32s
True Declination
-3° 18' 01"
Sunlit
Object was in daylight at epoch
Visualization orbit readout
Latitude
Unknown
Longitude
Unknown
Altitude
Unknown
Speed
Unknown
Apparent Right ascension
Unknown
Apparent Declination
Unknown
Sunlit
N/A
Visualization observer readout
Local Sidereal Time
10:52:33
Azimuth
Unknown
Elevation
Unknown
Doppler factor
Unknown
Orbital elements
Apogee altitude
33,813.768 km
Perigee altitude
33,532.256 km
Semi-major axis
40,051.149 km
Eccentricity
0.00351
Inclination
8.4127°
RAAN
44.1822°
Arg. of periapsis
125.3598°
True anomaly
77.80702°
Mean anomaly
77.4136°
Eccentric anomaly
77.61027°
Mean motion
0.27078 °/min
Orbital period
1,329.48 mins
BSTAR
0
Loading maneuver chart data...
Computing Atmospheric mass density...
Loading historical data...
Loading historical data...
Loading historical data...
Loading historical data...
Loading historical data...
Loading historical data...
Loading historical data...

Documentation

Showing up to 5 results
|